RH
29 31 32 28 31 33 37 40 42 41 41 41 38 34 35 34 30 31 29 27 26 25 27 27 28 27 31 34 35 35 42 41 38 35 30 26 26 31 37 59 62 61 64 67
34 33 29 29 29 31 34 37 38 38 38 40 40 32 32 33 31 30 28 27 28 28 27 30 30 29 32 35 35 36 42 41 40 36 32 25 25 30 37 50 60 61 69 64
43 37 28 26 25 27 29 31 31 33 35 36 39 28 24 27 27 27 27 27 29 30 30 31 33 33 34 36 34 35 42 40 42 39 35 25 26 30 35 39 45 64 59 71
38 30 31 30 30 29 35 34 36 37 41 47 44 42 25 24 21 25 26 29 30 35 33 34 36 35 36 37 36 37 41 42 44 41 38 25 25 28 32 36 40 51 59 59
36 38 36 36 37 41 46 45 45 46 47 57 55 56 28 27 27 25 24 29 31 38 36 36 36 39 42 40 39 39 42 44 44 42 39 26 26 29 33 37 41 45 50 54
36 43 43 41 46 47 46 44 43 50 57 63 47 53 36 33 33 34 33 33 32 36 38 38 39 43 42 39 42 41 43 45 44 42 39 27 25 29 33 36 39 44 48 54
41 42 45 49 49 47 49 52 63 63 68 57 49 60 44 41 43 48 44 40 38 40 42 41 41 42 41 38 40 42 43 45 44 41 40 27 25 30 32 35 39 47 53 59
46 42 45 46 45 51 59 55 64 73 73 72 65 65 56 59 62 60 53 50 46 45 43 41 41 40 39 39 41 42 42 45 43 42 41 28 25 31 33 35 39 48 54 62
47 40 43 49 47 48 63 67 63 77 70 84 71 61 58 66 67 65 61 58 54 48 44 43 42 40 40 43 42 41 42 45 45 43 41 31 25 30 32 36 40 48 54 60
44 49 51 53 50 55 58 66 82 85 86 84 71 71 71 79 79 74 66 62 59 51 47 45 41 41 44 47 45 44 43 43 47 47 42 35 27 30 33 37 40 46 52 58
44 45 55 55 58 61 65 71 80 84 89 94 89 78 88 92 88 80 73 70 66 58 51 46 46 50 51 50 51 50 49 54 61 58 48 41 28 30 33 36 40 46 49 53
52 59 63 63 58 58 65 75 79 90 89 94 93 79 79 82 88 82 77 74 77 72 64 59 58 58 61 57 56 60 61 62 66 60 52 45 35 30 32 35 38 45 50 52
67 68 73 79 73 66 75 83 90 98 92 88 96 77 77 80 79 75 86 82 82 84 76 71 67 66 64 63 63 65 70 70 70 68 59 55 51 37 32 33 36 41 48 52
66 70 66 76 74 69 71 77 89 96 97 93 92 82 74 79 77 76 79 92 89 92 84 79 74 72 71 71 70 73 75 78 82 78 66 66 62 56 40 35 35 37 43 48
69 71 67 59 54 57 57 61 75 85 90 92 81 85 77 81 86 83 83 94 97 95 91 86 83 81 80 80 80 81 84 85 86 84 81 78 73 69 62 47 43 42 41 44
67 67 64 58 47 49 46 45 47 63 71 72 83 83 80 78 89 88 92 98 97 93 89 85 86 86 89 85 92 89 87 85 84 85 85 84 79 76 73 74 62 60 59 57
52 54 58 51 42 42 35 33 48 62 74 81 88 79 80 82 90 92 95 99 96 98 92 88 86 88 88 91 94 94 87 87 82 83 85 84 82 80 82 81 76 73 74 75
41 43 50 56 45 47 24 33 41 60 76 84 87 85 91 93 93 97 97 99 99 97 97 96 96 92 87 87 88 87 85 84 80 79 82 83 83 83 83 83 83 83 81 82
48 48 51 56 54 40 32 42 49 62 70 81 92 96 98 97 96 98 99 99 99 99 98 96 96 92 86 82 79 74 76 78 78 75 75 78 79 80 82 84 85 83 82 82
57 58 60 62 66 61 31 50 43 39 65 76 88 90 93 97 98 98 98 99 98 97 97 96 93 90 86 78 73 69 67 63 59 57 57 59 64 66 66 70 71 74 78 80
59 64 67 68 69 64 51 47 41 49 66 79 89 94 96 98 99 99 98 97 97 97 92 89 88 86 84 79 76 71 65 59 57 55 52 49 49 50 52 54 56 58 61 64
62 73 78 75 81 74 68 56 51 53 58 74 90 93 97 97 96 97 98 98 93 93 89 83 76 76 74 73 71 70 70 68 59 54 52 51 48 44 44 46 47 48 49 49
75 83 82 83 77 79 83 78 74 63 61 67 85 92 99 93 98 98 97 88 85 85 82 74 71 66 63 61 62 61 61 61 58 54 52 50 46 45 43 41 42 43 43 43
77 78 84 95 97 91 90 87 82 81 72 72 73 87 94 92 97 92 87 87 88 84 78 77 74 68 64 58 56 55 56 56 55 52 51 51 48 43 39 37 35 35 34 35
80 79 93 97 95 96 96 95 92 90 87 82 76 81 94 97 97 97 96 91 86 82 79 73 71 67 60 58 55 52 51 52 52 52 52 51 46 44 43 42 40 39 39 39
85 88 95 92 98 98 94 97 98 95 98 97 94 94 91 93 94 94 87 83 78 75 74 70 67 64 59 57 56 54 51 48 47 47 47 48 49 47 47 47 46 45 43 41